Dades meteomassalio
Diari Summary for Juliol 30, 2017 Units:  English    Metric   Both
« Previous Day
Next Day »
Diari Semanal Mensual Anual Personalitzat
  Maxima: Minima: Mijana:
Temperatura: TemperatureC °F 19.8 °F 28.3 °F
Rosada: DewpointC °F 15.4 °F 18.8 °F
Humitat: Humidity % 31 % 60 %
Velocitat del vent: WindSpeedKMH mph 0.0 mph 6.8 mph
Racha vent: WindSpeedGustKMH mph - -
Vent:- - ESE
Pressio: PressurehPa in 1007.0 in -
Pluja: 0.0 in    
Historical Graphs
 
 
Tabular Data for Juliol 30, 2017
Time Temperature Dew Point Pressure Wind Wind Speed Wind Gust Humidity Rainfall Rate (Hourly) solar Conditions
TemperatureC °F DewpointC °F PressurehPa in Calm     Humidity % HourlyPrecipMM in SolarRadiationWatts/m^2 W/m2 Conditions
00:01 26.2 °F 20.9 °F 1011.7 in Calm     73 % 0.0 in 0.0 W/m2 CLR
00:06 26.2 °F 20.9 °F 1011.7 in Calm     73 % 0.0 in 0.0 W/m2 CLR
00:11 26.1 °F 20.9 °F 1011.7 in East 5.6 mph 5.6 mph 73 % 0.0 in 0.0 W/m2 CLR
00:16 26.1 °F 20.8 °F 1011.7 in Calm     73 % 0.0 in 0.0 W/m2 CLR
00:21 26.0 °F 21.0 °F 1011.7 in SE 4.8 mph 4.8 mph 74 % 0.0 in 0.0 W/m2 CLR
00:26 25.9 °F 20.9 °F 1011.7 in Calm     74 % 0.0 in 0.0 W/m2 CLR
00:31 25.9 °F 20.9 °F 1011.7 in Calm     74 % 0.0 in 0.0 W/m2 CLR
00:36 25.6 °F 20.8 °F 1011.7 in Calm     75 % 0.0 in 0.0 W/m2 CLR
00:41 25.4 °F 20.8 °F 1011.7 in Calm     76 % 0.0 in 0.0 W/m2 CLR
00:46 25.3 °F 20.8 °F 1011.7 in Calm     76 % 0.0 in 0.0 W/m2 CLR
00:51 25.3 °F 20.8 °F 1011.7 in Calm     76 % 0.0 in 0.0 W/m2 CLR
00:56 25.2 °F 20.7 °F 1011.7 in Calm     76 % 0.0 in 0.0 W/m2 CLR
01:01 25.1 °F 20.6 °F 1011.7 in Calm     76 % 0.0 in 0.0 W/m2 CLR
01:06 25.1 °F 20.7 °F 1011.7 in Calm     77 % 0.0 in 0.0 W/m2 CLR
01:11 25.0 °F 20.7 °F 1011.7 in Calm     77 % 0.0 in 0.0 W/m2 CLR
01:16 24.8 °F 20.5 °F 1011.7 in Calm     77 % 0.0 in 0.0 W/m2 CLR
01:21 24.7 °F 20.6 °F 1011.7 in Calm     78 % 0.0 in 0.0 W/m2 CLR
01:26 24.6 °F 20.4 °F 1011.7 in Calm     78 % 0.0 in 0.0 W/m2 CLR
01:31 24.6 °F 20.4 °F 1011.7 in Calm     78 % 0.0 in 0.0 W/m2 CLR
01:36 24.4 °F 20.3 °F 1011.4 in Calm     78 % 0.0 in 0.0 W/m2 CLR
01:46 24.2 °F 20.3 °F 1011.4 in Calm     79 % 0.0 in 0.0 W/m2 CLR
01:51 24.1 °F 20.4 °F 1011.4 in Calm     80 % 0.0 in 0.0 W/m2 CLR
01:56 24.0 °F 20.1 °F 1011.4 in Calm     79 % 0.0 in 0.0 W/m2 CLR
02:01 23.9 °F 20.2 °F 1011.4 in Calm     80 % 0.0 in 0.0 W/m2 CLR
02:06 23.8 °F 20.2 °F 1011.4 in Calm     80 % 0.0 in 0.0 W/m2 CLR
02:11 23.7 °F 20.1 °F 1011.4 in Calm     80 % 0.0 in 0.0 W/m2 CLR
02:16 23.6 °F 20.2 °F 1011.4 in Calm     81 % 0.0 in 0.0 W/m2 CLR
02:21 23.5 °F 20.1 °F 1011.4 in Calm     81 % 0.0 in 0.0 W/m2 CLR
02:27 23.4 °F 20.2 °F 1011.4 in Calm     82 % 0.0 in 0.0 W/m2 CLR
02:32 23.3 °F 20.1 °F 1011.4 in Calm     82 % 0.0 in 0.0 W/m2 CLR
02:37 23.3 °F 20.1 °F 1011.4 in Calm     82 % 0.0 in 0.0 W/m2 CLR
02:42 23.2 °F 19.9 °F 1011.4 in Calm     82 % 0.0 in 0.0 W/m2 CLR
02:47 23.1 °F 19.9 °F 1011.4 in Calm     82 % 0.0 in 0.0 W/m2 CLR
02:52 23.1 °F 20.0 °F 1011.4 in Calm     83 % 0.0 in 0.0 W/m2 CLR
02:57 23.0 °F 19.9 °F 1011.1 in Calm     83 % 0.0 in 0.0 W/m2 CLR
03:02 22.9 °F 19.8 °F 1011.1 in Calm     83 % 0.0 in 0.0 W/m2 CLR
03:07 22.9 °F 20.1 °F 1011.1 in Calm     84 % 0.0 in 0.0 W/m2 CLR
03:12 22.9 °F 19.8 °F 1011.1 in Calm     83 % 0.0 in 0.0 W/m2 CLR
03:22 22.7 °F 19.5 °F 1011.1 in Calm     82 % 0.0 in 0.0 W/m2 CLR
03:27 22.6 °F 19.5 °F 1011.1 in Calm     83 % 0.0 in 0.0 W/m2 CLR
03:32 22.4 °F 19.2 °F 1011.1 in Calm     82 % 0.0 in 0.0 W/m2 CLR
03:37 22.2 °F 19.0 °F 1011.1 in Calm     82 % 0.0 in 0.0 W/m2 CLR
03:42 22.1 °F 19.1 °F 1011.1 in Calm     83 % 0.0 in 0.0 W/m2 CLR
03:47 22.0 °F 19.2 °F 1011.1 in Calm     84 % 0.0 in 0.0 W/m2 CLR
03:52 21.9 °F 19.1 °F 1011.1 in Calm     84 % 0.0 in 0.0 W/m2 CLR
03:57 21.9 °F 18.9 °F 1011.1 in Calm     83 % 0.0 in 0.0 W/m2 CLR
04:02 21.8 °F 18.8 °F 1011.1 in Calm     83 % 0.0 in 0.0 W/m2 CLR
04:07 21.7 °F 18.9 °F 1011.4 in Calm     84 % 0.0 in 0.0 W/m2 CLR
04:12 21.7 °F 18.8 °F 1011.4 in Calm     84 % 0.0 in 0.0 W/m2 CLR
04:17 21.6 °F 18.8 °F 1011.4 in Calm     84 % 0.0 in 0.0 W/m2 CLR
04:22 21.6 °F 18.9 °F 1011.1 in Calm     85 % 0.0 in 0.0 W/m2 CLR
04:27 21.5 °F 18.9 °F 1011.1 in Calm     85 % 0.0 in 0.0 W/m2 CLR
04:32 21.5 °F 18.9 °F 1011.1 in Calm     85 % 0.0 in 0.0 W/m2 CLR
04:37 21.5 °F 18.9 °F 1011.1 in Calm     85 % 0.0 in 0.0 W/m2 CLR
04:38 21.5 °F 18.9 °F 1011.4 in Calm     85 % 0.0 in 0.0 W/m2 CLR
04:43 21.5 °F 19.1 °F 1011.4 in Calm     86 % 0.0 in 0.0 W/m2 CLR
04:48 21.4 °F 18.8 °F 1011.4 in Calm     85 % 0.0 in 0.0 W/m2 CLR
04:53 21.4 °F 18.8 °F 1011.4 in Calm     85 % 0.0 in 0.0 W/m2 CLR
04:58 21.3 °F 18.7 °F 1011.4 in Calm     85 % 0.0 in 0.0 W/m2 CLR
05:03 21.2 °F 18.6 °F 1011.4 in Calm     85 % 0.0 in 0.0 W/m2 CLR
05:08 21.1 °F 18.7 °F 1011.4 in Calm     86 % 0.0 in 0.0 W/m2 CLR
05:13 21.1 °F 18.7 °F 1011.1 in Calm     86 % 0.0 in 0.0 W/m2 CLR
05:18 21.1 °F 18.6 °F 1011.4 in Calm     86 % 0.0 in 0.0 W/m2 CLR
05:23 21.0 °F 18.6 °F 1011.4 in Calm     86 % 0.0 in 0.0 W/m2 CLR
05:28 20.9 °F 18.4 °F 1011.4 in Calm     86 % 0.0 in 0.0 W/m2 CLR
05:33 20.7 °F 18.3 °F 1011.1 in Calm     86 % 0.0 in 0.0 W/m2 CLR
05:38 20.6 °F 18.2 °F 1011.4 in Calm     86 % 0.0 in 0.0 W/m2 CLR
05:48 20.5 °F 18.3 °F 1011.4 in Calm     87 % 0.0 in 0.0 W/m2 CLR
05:53 20.5 °F 18.3 °F 1011.4 in Calm     87 % 0.0 in 0.0 W/m2 CLR
05:58 20.4 °F 18.2 °F 1011.4 in Calm     87 % 0.0 in 0.0 W/m2 CLR
06:03 20.4 °F 18.2 °F 1011.1 in Calm     87 % 0.0 in 0.0 W/m2 CLR
06:08 20.3 °F 18.1 °F 1011.4 in Calm     87 % 0.0 in 0.0 W/m2 CLR
06:13 20.2 °F 18.0 °F 1011.4 in Calm     87 % 0.0 in 0.0 W/m2 CLR
06:18 20.2 °F 18.2 °F 1011.4 in Calm     88 % 0.0 in 0.0 W/m2 CLR
06:23 20.2 °F 18.0 °F 1011.4 in Calm     87 % 0.0 in 0.0 W/m2 CLR
06:28 20.2 °F 17.9 °F 1011.4 in Calm     87 % 0.0 in 0.0 W/m2 CLR
06:33 20.1 °F 18.1 °F 1011.1 in Calm     88 % 0.0 in 0.0 W/m2 CLR
06:38 20.0 °F 17.9 °F 1011.1 in Calm     88 % 0.0 in 0.0 W/m2 CLR
06:43 20.0 °F 17.8 °F 1011.1 in Calm     87 % 0.0 in 0.0 W/m2 OVC
06:48 19.9 °F 17.9 °F 1011.4 in Calm     88 % 0.0 in 0.0 W/m2 OVC
06:58 19.9 °F 17.7 °F 1011.1 in Calm     87 % 0.0 in 5.0 W/m2 OVC
07:03 19.8 °F 17.6 °F 1011.4 in Calm     87 % 0.0 in 9.0 W/m2 BKN
07:08 19.8 °F 17.6 °F 1011.4 in Calm     87 % 0.0 in 12.0 W/m2 BKN
07:13 19.8 °F 17.7 °F 1011.4 in Calm     88 % 0.0 in 18.0 W/m2 BKN
07:18 19.8 °F 17.7 °F 1011.4 in Calm     88 % 0.0 in 21.0 W/m2 BKN
07:24 19.8 °F 17.7 °F 1011.4 in Calm     88 % 0.0 in 26.0 W/m2 BKN
07:29 19.8 °F 17.7 °F 1011.4 in Calm     88 % 0.0 in 33.0 W/m2 BKN
07:34 19.8 °F 17.6 °F 1011.4 in Calm     87 % 0.0 in 40.0 W/m2 BKN
07:39 19.8 °F 17.8 °F 1011.4 in Calm     88 % 0.0 in 49.0 W/m2 BKN
07:44 19.9 °F 17.7 °F 1011.4 in Calm     87 % 0.0 in 60.0 W/m2 SCT
07:49 20.1 °F 17.8 °F 1011.4 in Calm     87 % 0.0 in 70.0 W/m2 FEW
07:54 20.2 °F 18.0 °F 1011.4 in Calm     87 % 0.0 in 81.0 W/m2 FEW
07:59 20.4 °F 18.2 °F 1011.7 in Calm     87 % 0.0 in 91.0 W/m2 FEW
08:04 20.6 °F 18.2 °F 1011.7 in Calm     86 % 0.0 in 104.0 W/m2 CLR
08:09 20.8 °F 18.2 °F 1011.7 in Calm     85 % 0.0 in 120.0 W/m2 CLR
08:14 20.9 °F 18.1 °F 1011.7 in Calm     84 % 0.0 in 135.0 W/m2 CLR
08:19 21.1 °F 18.3 °F 1011.4 in Calm     84 % 0.0 in 149.0 W/m2 CLR
08:24 21.4 °F 18.4 °F 1011.4 in Calm     83 % 0.0 in 165.0 W/m2 CLR
08:29 21.8 °F 18.6 °F 1011.7 in Calm     82 % 0.0 in 181.0 W/m2 CLR
08:34 22.3 °F 18.7 °F 1011.7 in Calm     80 % 0.0 in 199.0 W/m2 CLR
08:39 22.8 °F 18.8 °F 1011.7 in Calm     78 % 0.0 in 216.0 W/m2 CLR
08:44 23.3 °F 18.8 °F 1011.7 in Calm     76 % 0.0 in 230.0 W/m2 CLR
08:49 23.6 °F 18.7 °F 1011.7 in Calm     74 % 0.0 in 246.0 W/m2 CLR
08:54 23.9 °F 18.8 °F 1011.7 in Calm     73 % 0.0 in 262.0 W/m2 CLR
08:59 24.3 °F 18.7 °F 1011.7 in Calm     71 % 0.0 in 278.0 W/m2 CLR
09:04 24.7 °F 18.9 °F 1011.7 in Calm     70 % 0.0 in 294.0 W/m2 CLR
09:09 25.2 °F 19.1 °F 1011.7 in Calm     69 % 0.0 in 308.0 W/m2 CLR
09:14 25.5 °F 18.9 °F 1011.7 in Calm     67 % 0.0 in 327.0 W/m2 CLR
09:19 25.4 °F 18.6 °F 1011.7 in Calm     66 % 0.0 in 341.0 W/m2 CLR
09:24 25.5 °F 19.2 °F 1011.7 in Calm     68 % 0.0 in 357.0 W/m2 CLR
09:29 25.9 °F 19.6 °F 1011.7 in Calm     68 % 0.0 in 371.0 W/m2 CLR
09:34 26.2 °F 19.4 °F 1011.7 in Calm     66 % 0.0 in 390.0 W/m2 CLR
09:39 26.5 °F 19.6 °F 1011.7 in Calm     66 % 0.0 in 403.0 W/m2 CLR
09:44 26.8 °F 19.7 °F 1011.7 in Calm     65 % 0.0 in 417.0 W/m2 CLR
09:49 27.2 °F 19.8 °F 1011.7 in Calm     64 % 0.0 in 285.0 W/m2 CLR
09:59 27.6 °F 19.9 °F 1011.7 in ENE 4.8 mph 4.8 mph 63 % 0.0 in 464.0 W/m2 CLR
10:04 27.6 °F 19.7 °F 1011.7 in ENE 1.9 mph   62 % 0.0 in 478.0 W/m2 CLR
10:09 27.6 °F 19.9 °F 1011.7 in Calm     63 % 0.0 in 492.0 W/m2 CLR
10:14 27.9 °F 20.2 °F 1011.7 in ENE 1.9 mph   63 % 0.0 in 506.0 W/m2 CLR
10:19 28.1 °F 20.4 °F 1011.7 in NE 1.9 mph   63 % 0.0 in 522.0 W/m2 CLR
10:24 28.3 °F 20.6 °F 1011.7 in Calm     63 % 0.0 in 538.0 W/m2 CLR
10:29 28.4 °F 20.7 °F 1011.7 in Calm     63 % 0.0 in 554.0 W/m2 CLR
10:34 28.6 °F 20.9 °F 1011.7 in ENE 1.9 mph 1.9 mph 63 % 0.0 in 568.0 W/m2 CLR
10:39 28.6 °F 20.9 °F 1011.7 in Calm     63 % 0.0 in 582.0 W/m2 CLR
10:40 28.7 °F 20.9 °F 1011.7 in Calm     63 % 0.0 in 582.0 W/m2 CLR
10:50 29.3 °F 21.2 °F 1011.7 in ESE 1.9 mph   62 % 0.0 in 608.0 W/m2 CLR
10:55 29.7 °F 21.3 °F 1011.7 in Calm     61 % 0.0 in 624.0 W/m2 CLR
11:00 29.9 °F 21.6 °F 1011.7 in ENE 1.6 mph   61 % 0.0 in 636.0 W/m2 CLR
11:05 30.2 °F 21.6 °F 1011.7 in East 3.7 mph 3.7 mph 60 % 0.0 in 649.0 W/m2 CLR
11:10 30.2 °F 21.3 °F 1011.7 in Calm     59 % 0.0 in 663.0 W/m2 CLR
11:15 30.1 °F 21.2 °F 1011.4 in ENE 1.9 mph 1.9 mph 59 % 0.0 in 673.0 W/m2 CLR
11:20 30.4 °F 21.6 °F 1011.4 in ENE 4.8 mph 4.8 mph 59 % 0.0 in 686.0 W/m2 CLR
11:25 30.9 °F 21.4 °F 1011.4 in ESE 3.2 mph 3.2 mph 57 % 0.0 in 696.0 W/m2 CLR
11:30 31.2 °F 21.4 °F 1011.4 in ENE 5.6 mph 5.6 mph 56 % 0.0 in 710.0 W/m2 CLR
11:35 31.3 °F 20.9 °F 1011.4 in ENE 3.7 mph 3.7 mph 54 % 0.0 in 719.0 W/m2 CLR
11:40 31.4 °F 20.7 °F 1011.4 in ENE 5.6 mph 5.6 mph 53 % 0.0 in 735.0 W/m2 CLR
11:45 31.5 °F 20.4 °F 1011.4 in ESE 1.9 mph   52 % 0.0 in 742.0 W/m2 CLR
11:50 31.6 °F 19.9 °F 1011.4 in ESE 1.9 mph 1.9 mph 50 % 0.0 in 756.0 W/m2 CLR
11:55 31.9 °F 20.5 °F 1011.1 in Calm     51 % 0.0 in 763.0 W/m2 CLR
12:00 32.3 °F 20.6 °F 1011.4 in NNE 4.8 mph 4.8 mph 50 % 0.0 in 768.0 W/m2 CLR
12:05 32.3 °F 20.3 °F 1011.4 in Calm     49 % 0.0 in 782.0 W/m2 CLR
12:10 32.4 °F 20.0 °F 1011.1 in Calm     48 % 0.0 in 788.0 W/m2 CLR
12:15 32.8 °F 20.4 °F 1011.1 in NE 11.3 mph 11.3 mph 48 % 0.0 in 796.0 W/m2 CLR
12:20 32.8 °F 20.4 °F 1011.1 in ENE 5.6 mph 5.6 mph 48 % 0.0 in 803.0 W/m2 CLR
12:21 32.8 °F 20.3 °F 1011.1 in East 5.6 mph 5.6 mph 48 % 0.0 in 807.0 W/m2 CLR
12:26 32.8 °F 20.0 °F 1011.1 in ENE 9.7 mph 9.7 mph 47 % 0.0 in 814.0 W/m2 CLR
12:31 32.8 °F 20.0 °F 1011.1 in ENE 7.4 mph 7.4 mph 47 % 0.0 in 823.0 W/m2 CLR
12:36 32.7 °F 19.6 °F 1011.1 in ESE 8.0 mph 8.0 mph 46 % 0.0 in 830.0 W/m2 CLR
12:42 33.1 °F 19.2 °F 1011.1 in ENE 5.6 mph   44 % 0.0 in 838.0 W/m2 CLR
12:47 33.7 °F 18.2 °F 1011.1 in ENE 11.1 mph 11.1 mph 40 % 0.0 in 761.0 W/m2 CLR
12:52 33.8 °F 17.5 °F 1011.1 in East 11.1 mph 11.1 mph 38 % 0.0 in 854.0 W/m2 CLR
12:57 33.9 °F 18.8 °F 1010.7 in ENE 13.0 mph 13.0 mph 41 % 0.0 in 858.0 W/m2 CLR
13:02 34.0 °F 18.1 °F 1010.7 in East 9.3 mph 9.3 mph 39 % 0.0 in 863.0 W/m2 CLR
13:07 33.8 °F 17.9 °F 1010.7 in NE 12.9 mph 12.9 mph 39 % 0.0 in 870.0 W/m2 CLR
13:12 34.0 °F 16.8 °F 1010.7 in ENE 9.3 mph 9.3 mph 36 % 0.0 in 881.0 W/m2 CLR
13:17 34.1 °F 16.9 °F 1010.7 in ENE 7.4 mph 7.4 mph 36 % 0.0 in 877.0 W/m2 CLR
13:22 34.2 °F 16.1 °F 1010.4 in NE 5.6 mph 5.6 mph 34 % 0.0 in 882.0 W/m2 CLR
13:27 34.3 °F 16.7 °F 1010.4 in SW 3.7 mph 3.7 mph 35 % 0.0 in 886.0 W/m2 CLR
13:32 34.6 °F 17.3 °F 1010.4 in ENE 1.9 mph 1.9 mph 36 % 0.0 in 886.0 W/m2 CLR
13:37 34.9 °F 17.2 °F 1010.4 in ENE 3.7 mph 3.7 mph 35 % 0.0 in 893.0 W/m2 CLR
13:42 34.9 °F 17.2 °F 1010.4 in East 9.3 mph 9.3 mph 35 % 0.0 in 895.0 W/m2 CLR
13:47 34.7 °F 17.0 °F 1010.0 in Calm     35 % 0.0 in 884.0 W/m2 CLR
13:48 34.8 °F 16.6 °F 1010.0 in Calm     34 % 0.0 in 895.0 W/m2 CLR
13:53 34.9 °F 17.2 °F 1010.0 in NNE 6.4 mph 6.4 mph 35 % 0.0 in 895.0 W/m2 CLR
13:58 35.3 °F 17.6 °F 1010.0 in NE 11.1 mph 11.1 mph 35 % 0.0 in 888.0 W/m2 CLR
14:03 35.6 °F 17.3 °F 1010.0 in ESE 1.6 mph 1.6 mph 34 % 0.0 in 891.0 W/m2 CLR
14:08 35.8 °F 17.1 °F 1009.7 in ENE 7.4 mph 7.4 mph 33 % 0.0 in 893.0 W/m2 CLR
14:13 35.9 °F 16.6 °F 1009.7 in East 8.0 mph 8.0 mph 32 % 0.0 in 791.0 W/m2 CLR
14:18 35.9 °F 16.6 °F 1009.7 in ESE 14.8 mph 14.8 mph 32 % 0.0 in 875.0 W/m2 CLR
14:23 36.1 °F 16.3 °F 1009.7 in East 16.1 mph 16.1 mph 31 % 0.0 in 893.0 W/m2 CLR
14:28 35.8 °F 16.5 °F 1009.7 in East 8.0 mph 8.0 mph 32 % 0.0 in 889.0 W/m2 CLR
14:33 36.1 °F 17.2 °F 1009.4 in East 11.1 mph 11.1 mph 33 % 0.0 in 889.0 W/m2 CLR
14:38 36.2 °F 17.8 °F 1009.4 in ESE 16.1 mph 16.1 mph 34 % 0.0 in 881.0 W/m2 CLR
14:43 36.0 °F 17.7 °F 1009.4 in ESE 13.0 mph 13.0 mph 34 % 0.0 in 884.0 W/m2 CLR
14:48 36.6 °F 17.7 °F 1009.4 in ESE 13.0 mph 13.0 mph 33 % 0.0 in 879.0 W/m2 CLR
14:53 36.5 °F 18.6 °F 1009.4 in SE 20.4 mph 20.4 mph 35 % 0.0 in 874.0 W/m2 CLR
14:59 35.9 °F 18.1 °F 1009.4 in SE 13.0 mph 13.0 mph 35 % 0.0 in 870.0 W/m2 CLR
15:04 36.0 °F 17.7 °F 1009.0 in ESE 19.3 mph 19.3 mph 34 % 0.0 in 868.0 W/m2 CLR
15:09 36.1 °F 18.2 °F 1009.0 in ESE 24.1 mph 24.1 mph 35 % 0.0 in 863.0 W/m2 CLR
15:14 36.2 °F 17.9 °F 1009.0 in ESE 16.7 mph 16.7 mph 34 % 0.0 in 858.0 W/m2 CLR
15:19 36.4 °F 18.0 °F 1008.7 in SE 14.8 mph 14.8 mph 34 % 0.0 in 851.0 W/m2 CLR
15:24 36.4 °F 18.5 °F 1008.7 in SE 18.5 mph 18.5 mph 35 % 0.0 in 853.0 W/m2 CLR
15:29 36.5 °F 18.6 °F 1008.7 in East 13.0 mph 13.0 mph 35 % 0.0 in 847.0 W/m2 CLR
15:34 36.7 °F 17.3 °F 1008.7 in SE 16.7 mph 16.7 mph 32 % 0.0 in 844.0 W/m2 CLR
15:39 36.6 °F 18.2 °F 1008.4 in East 16.7 mph 16.7 mph 34 % 0.0 in 821.0 W/m2 CLR
15:44 36.6 °F 17.7 °F 1008.4 in ESE 16.1 mph 16.1 mph 33 % 0.0 in 830.0 W/m2 CLR
15:49 36.9 °F 18.0 °F 1008.4 in ESE 14.8 mph 14.8 mph 33 % 0.0 in 823.0 W/m2 CLR
15:54 36.9 °F 18.0 °F 1008.4 in SE 22.2 mph 22.2 mph 33 % 0.0 in 819.0 W/m2 CLR
15:59 36.7 °F 18.7 °F 1008.4 in East 27.8 mph 27.8 mph 35 % 0.0 in 823.0 W/m2 CLR
16:04 36.6 °F 19.1 °F 1008.4 in ESE 24.1 mph 24.1 mph 36 % 0.0 in 823.0 W/m2 CLR
16:09 36.4 °F 18.9 °F 1008.4 in ESE 20.4 mph 20.4 mph 36 % 0.0 in 823.0 W/m2 CLR
16:14 36.6 °F 19.5 °F 1008.0 in East 25.9 mph 25.9 mph 37 % 0.0 in 867.0 W/m2 CLR
16:19 36.1 °F 19.1 °F 1008.0 in East 25.9 mph 25.9 mph 37 % 0.0 in 802.0 W/m2 CLR
16:24 36.2 °F 19.6 °F 1008.0 in ESE 24.1 mph 24.1 mph 38 % 0.0 in 816.0 W/m2 CLR
16:29 36.1 °F 19.6 °F 1007.7 in East 25.9 mph 25.9 mph 38 % 0.0 in 786.0 W/m2 CLR
16:34 35.7 °F 19.6 °F 1008.0 in SE 18.5 mph 18.5 mph 39 % 0.0 in 202.0 W/m2 CLR
16:39 35.7 °F 19.6 °F 1008.0 in SE 31.5 mph 31.5 mph 39 % 0.0 in 202.0 W/m2 CLR
16:44 35.4 °F 19.7 °F 1008.4 in SE 29.6 mph 29.6 mph 40 % 0.0 in 241.0 W/m2 CLR
16:49 35.6 °F 19.9 °F 1008.4 in SE 38.9 mph 38.9 mph 40 % 0.0 in 833.0 W/m2 CLR
16:54 34.0 °F 17.7 °F 1008.4 in SSE 31.5 mph 31.5 mph 38 % 0.0 in 301.0 W/m2 CLR
16:59 33.1 °F 16.9 °F 1008.4 in SE 25.9 mph 25.9 mph 38 % 0.0 in 758.0 W/m2 CLR
17:02 32.9 °F 15.4 °F 1008.4 in South 24.1 mph 24.1 mph 35 % 0.0 in 728.0 W/m2 CLR
17:07 32.6 °F 15.6 °F 1008.4 in South 27.8 mph 27.8 mph 36 % 0.0 in 714.0 W/m2 CLR
17:12 32.8 °F 15.7 °F 1008.4 in SSE 33.3 mph 33.3 mph 36 % 0.0 in 740.0 W/m2 CLR
17:14 32.6 °F 17.3 °F 1008.4 in SSE 27.8 mph 27.8 mph 40 % 0.0 in 712.0 W/m2 CLR
17:19 32.4 °F 17.9 °F 1008.4 in SSW 18.5 mph 18.5 mph 42 % 0.0 in 708.0 W/m2 CLR
17:24 32.7 °F 17.7 °F 1008.4 in ESE 14.8 mph 14.8 mph 41 % 0.0 in 679.0 W/m2 CLR
17:29 33.4 °F 17.2 °F 1008.0 in SE 22.5 mph 22.5 mph 38 % 0.0 in 647.0 W/m2 CLR
17:34 33.9 °F 17.2 °F 1008.0 in SE 22.2 mph 22.2 mph 37 % 0.0 in 628.0 W/m2 CLR
17:39 33.8 °F 17.9 °F 1008.0 in SE 22.2 mph 22.2 mph 39 % 0.0 in 596.0 W/m2 CLR
17:44 33.3 °F 18.7 °F 1008.0 in SE 22.2 mph 22.2 mph 42 % 0.0 in 563.0 W/m2 CLR
17:49 33.3 °F 19.4 °F 1008.0 in SSE 20.9 mph 20.9 mph 44 % 0.0 in 183.0 W/m2 CLR
17:54 33.0 °F 19.1 °F 1008.0 in SE 18.5 mph 18.5 mph 44 % 0.0 in 148.0 W/m2 CLR
17:59 33.3 °F 20.1 °F 1008.0 in ESE 16.7 mph 16.7 mph 46 % 0.0 in 534.0 W/m2 CLR
18:04 33.4 °F 20.2 °F 1007.7 in ESE 22.5 mph 22.5 mph 46 % 0.0 in 504.0 W/m2 CLR
18:09 33.5 °F 20.3 °F 1007.7 in SE 18.5 mph 18.5 mph 46 % 0.0 in 485.0 W/m2 CLR
18:14 33.8 °F 19.8 °F 1007.7 in SE 25.9 mph 25.9 mph 44 % 0.0 in 476.0 W/m2 CLR
18:19 33.8 °F 19.8 °F 1007.7 in SSE 24.1 mph 24.1 mph 44 % 0.0 in 107.0 W/m2 CLR
18:24 33.8 °F 19.8 °F 1007.3 in SSE 22.2 mph 22.2 mph 44 % 0.0 in 111.0 W/m2 CLR
18:29 33.7 °F 19.7 °F 1007.3 in SE 19.3 mph 19.3 mph 44 % 0.0 in 176.0 W/m2 CLR
18:34 33.8 °F 19.4 °F 1007.3 in SE 18.5 mph 18.5 mph 43 % 0.0 in 452.0 W/m2 CLR
18:39 33.9 °F 19.6 °F 1007.3 in SE 16.7 mph 16.7 mph 43 % 0.0 in 169.0 W/m2 CLR
18:44 33.8 °F 19.5 °F 1007.3 in SE 17.7 mph 17.7 mph 43 % 0.0 in 113.0 W/m2 CLR
18:49 33.8 °F 19.1 °F 1007.3 in SE 14.8 mph 14.8 mph 42 % 0.0 in 311.0 W/m2 CLR
18:54 34.0 °F 18.9 °F 1007.3 in SSE 18.5 mph 18.5 mph 41 % 0.0 in 420.0 W/m2 CLR
18:59 34.2 °F 18.7 °F 1007.3 in SSE 18.5 mph 18.5 mph 40 % 0.0 in 378.0 W/m2 CLR
19:04 34.3 °F 18.7 °F 1007.3 in ESE 13.0 mph 13.0 mph 40 % 0.0 in 343.0 W/m2 CLR
19:09 34.1 °F 18.6 °F 1007.3 in SSE 22.5 mph 22.5 mph 40 % 0.0 in 323.0 W/m2 CLR
19:14 33.7 °F 18.2 °F 1007.3 in ESE 20.4 mph 20.4 mph 40 % 0.0 in 302.0 W/m2 CLR
19:17 33.7 °F 18.6 °F 1007.3 in SE 25.9 mph 25.9 mph 41 % 0.0 in 287.0 W/m2 CLR
19:22 33.4 °F 18.3 °F 1007.0 in SSE 27.8 mph 27.8 mph 41 % 0.0 in 267.0 W/m2 CLR
19:27 33.3 °F 18.6 °F 1007.0 in SE 16.1 mph 16.1 mph 42 % 0.0 in 262.0 W/m2 CLR
19:32 33.3 °F 18.3 °F 1007.0 in SSE 18.5 mph 18.5 mph 41 % 0.0 in 269.0 W/m2 CLR
19:37 33.3 °F 18.3 °F 1007.0 in SE 16.7 mph 16.7 mph 41 % 0.0 in 251.0 W/m2 CLR
19:42 33.3 °F 18.3 °F 1007.0 in SE 13.0 mph 13.0 mph 41 % 0.0 in 234.0 W/m2 CLR
19:47 33.2 °F 18.6 °F 1007.0 in SSE 22.2 mph 22.2 mph 42 % 0.0 in 113.0 W/m2 CLR
19:52 32.8 °F 18.6 °F 1007.0 in SSE 22.2 mph 22.2 mph 43 % 0.0 in 90.0 W/m2 CLR
19:57 32.7 °F 18.5 °F 1007.0 in SSE 16.7 mph 16.7 mph 43 % 0.0 in 90.0 W/m2 CLR
20:02 32.6 °F 18.4 °F 1007.3 in SSE 16.7 mph 16.7 mph 43 % 0.0 in 70.0 W/m2 CLR
20:07 32.3 °F 18.5 °F 1007.0 in SSE 22.2 mph 22.2 mph 44 % 0.0 in 49.0 W/m2 FEW
20:12 32.0 °F 18.6 °F 1007.0 in SE 24.1 mph 24.1 mph 45 % 0.0 in 42.0 W/m2 SCT
20:17 31.7 °F 18.3 °F 1007.0 in SE 18.5 mph 18.5 mph 45 % 0.0 in 46.0 W/m2 SCT
20:22 31.6 °F 18.2 °F 1007.0 in SSE 24.1 mph 24.1 mph 45 % 0.0 in 37.0 W/m2 BKN
20:27 31.5 °F 18.1 °F 1007.0 in SE 14.8 mph 14.8 mph 45 % 0.0 in 35.0 W/m2 BKN
20:32 31.4 °F 18.1 °F 1007.0 in SSE 20.4 mph 20.4 mph 45 % 0.0 in 33.0 W/m2 BKN
20:37 31.2 °F 18.2 °F 1007.3 in SSE 18.5 mph 18.5 mph 46 % 0.0 in 33.0 W/m2 BKN
20:42 31.1 °F 18.1 °F 1007.3 in SSE 14.8 mph 14.8 mph 46 % 0.0 in 30.0 W/m2 BKN
20:47 30.9 °F 18.3 °F 1007.3 in SSE 11.1 mph 11.1 mph 47 % 0.0 in 21.0 W/m2 BKN
20:52 30.8 °F 18.2 °F 1007.3 in Calm     47 % 0.0 in 18.0 W/m2 BKN
20:57 30.7 °F 18.1 °F 1007.3 in Calm     47 % 0.0 in 12.0 W/m2 BKN
21:02 30.6 °F 18.3 °F 1007.3 in Calm     48 % 0.0 in 9.0 W/m2 BKN
21:07 30.5 °F 18.2 °F 1007.3 in East 1.9 mph 1.9 mph 48 % 0.0 in 5.0 W/m2 OVC
21:12 30.3 °F 18.4 °F 1007.3 in ESE 13.0 mph 13.0 mph 49 % 0.0 in 0.0 W/m2 OVC
21:17 30.1 °F 18.2 °F 1007.3 in ESE 9.3 mph 9.3 mph 49 % 0.0 in 0.0 W/m2 OVC
21:22 30.0 °F 18.1 °F 1007.3 in Calm     49 % 0.0 in 0.0 W/m2 OVC
21:27 30.0 °F 17.8 °F 1007.3 in SSE 4.8 mph 4.8 mph 48 % 0.0 in 0.0 W/m2 CLR
21:32 30.2 °F 17.6 °F 1007.3 in SSE 16.1 mph 16.1 mph 47 % 0.0 in 0.0 W/m2 CLR
21:37 30.2 °F 17.6 °F 1007.3 in SSE 13.0 mph 13.0 mph 47 % 0.0 in 0.0 W/m2 CLR
21:42 30.1 °F 17.6 °F 1007.3 in SE 13.0 mph 13.0 mph 47 % 0.0 in 0.0 W/m2 CLR
21:47 30.0 °F 17.4 °F 1007.7 in SSE 3.7 mph   47 % 0.0 in 0.0 W/m2 CLR
21:52 29.9 °F 17.7 °F 1007.7 in Calm     48 % 0.0 in 0.0 W/m2 CLR
21:57 29.8 °F 17.9 °F 1007.7 in Calm     49 % 0.0 in 0.0 W/m2 CLR
22:02 29.6 °F 18.1 °F 1007.7 in Calm     50 % 0.0 in 0.0 W/m2 CLR
22:07 29.4 °F 17.9 °F 1007.7 in Calm     50 % 0.0 in 0.0 W/m2 CLR
22:12 29.2 °F 18.3 °F 1007.7 in Calm     52 % 0.0 in 0.0 W/m2 CLR
22:17 28.9 °F 18.7 °F 1008.0 in Calm     54 % 0.0 in 0.0 W/m2 CLR
22:22 28.7 °F 18.7 °F 1008.0 in Calm     55 % 0.0 in 0.0 W/m2 CLR
22:27 28.3 °F 19.0 °F 1008.0 in Calm     57 % 0.0 in 0.0 W/m2 CLR
22:32 28.0 °F 19.2 °F 1008.0 in Calm     59 % 0.0 in 0.0 W/m2 CLR
22:37 27.8 °F 19.1 °F 1008.0 in Calm     59 % 0.0 in 0.0 W/m2 CLR
22:42 27.7 °F 19.2 °F 1008.0 in Calm     60 % 0.0 in 0.0 W/m2 CLR
22:47 27.6 °F 19.3 °F 1008.0 in Calm     61 % 0.0 in 0.0 W/m2 CLR
22:52 27.4 °F 19.2 °F 1008.0 in Calm     61 % 0.0 in 0.0 W/m2 CLR
22:57 27.2 °F 19.1 °F 1008.0 in Calm     61 % 0.0 in 0.0 W/m2 CLR
23:03 27.1 °F 19.2 °F 1008.0 in ESE 5.6 mph 5.6 mph 62 % 0.0 in 0.0 W/m2 CLR
23:07 26.9 °F 19.0 °F 1008.0 in Calm     62 % 0.0 in 0.0 W/m2 CLR
23:12 26.8 °F 18.9 °F 1008.0 in Calm     62 % 0.0 in 0.0 W/m2 CLR
23:17 26.7 °F 18.8 °F 1008.0 in Calm     62 % 0.0 in 0.0 W/m2 CLR
23:22 26.6 °F 19.2 °F 1008.0 in Calm     64 % 0.0 in 0.0 W/m2 CLR
23:28 26.3 °F 19.2 °F 1008.4 in East 3.2 mph 3.2 mph 65 % 0.0 in 0.0 W/m2 CLR
23:33 26.3 °F 19.4 °F 1008.0 in East 1.9 mph   66 % 0.0 in 0.0 W/m2 CLR
23:38 26.3 °F 19.4 °F 1008.0 in Calm     66 % 0.0 in 0.0 W/m2 CLR
23:43 26.2 °F 19.1 °F 1008.0 in Calm     65 % 0.0 in 0.0 W/m2 CLR
23:48 26.2 °F 18.9 °F 1008.0 in Calm     64 % 0.0 in 0.0 W/m2 CLR
23:53 26.2 °F 18.6 °F 1008.4 in Calm     63 % 0.0 in 0.0 W/m2 CLR
23:58 26.2 °F 18.9 °F 1008.0 in Calm     64 % 0.0 in 0.0 W/m2 CLR
Lo Temps de Massalio
Compliments of Weather Underground - 1.25 mb